QPF
0.00 0.00 0.00 0.05 0.11 0.17 0.17 0.13 0.08 0.07 0.04 0.01 0.00 0.00 0.00 0.00 0.00 0.00 0.00 0.00 0.00 0.00 0.00 0.00 0.00 0.00 0.00 0.00 0.00 0.00 0.00 0.00 0.00 0.00 0.00 0.00 0.00 0.00 0.00 0.00 0.00 0.00 0.00
0.00 0.00 0.02 0.08 0.14 0.24 0.19 0.12 0.11 0.13 0.08 0.02 0.01 0.00 0.00 0.00 0.00 0.00 0.00 0.00 0.00 0.00 0.00 0.00 0.00 0.00 0.00 0.00 0.00 0.00 0.00 0.00 0.00 0.00 0.00 0.00 0.00 0.00 0.00 0.00 0.00 0.00 0.00
0.00 0.00 0.07 0.17 0.22 0.34 0.32 0.16 0.13 0.09 0.02 0.00 0.00 0.00 0.00 0.00 0.00 0.00 0.00 0.00 0.00 0.00 0.00 0.00 0.00 0.00 0.00 0.00 0.00 0.00 0.00 0.00 0.00 0.00 0.00 0.00 0.00 0.00 0.00 0.00 0.00 0.00 0.00
0.00 0.00 0.05 0.04 0.17 0.31 0.22 0.12 0.05 0.01 0.00 0.00 0.00 0.00 0.00 0.00 0.00 0.00 0.00 0.00 0.00 0.00 0.00 0.00 0.00 0.00 0.00 0.00 0.00 0.01 0.01 0.01 0.01 0.00 0.00 0.00 0.00 0.00 0.00 0.00 0.00 0.00 0.00
0.00 0.00 0.01 0.07 0.11 0.15 0.12 0.02 0.00 0.00 0.00 0.00 0.00 0.00 0.00 0.00 0.00 0.00 0.00 0.00 0.00 0.00 0.00 0.00 0.00 0.00 0.00 0.01 0.02 0.01 0.01 0.00 0.00 0.00 0.00 0.00 0.00 0.00 0.00 0.00 0.00 0.00 0.00
0.00 0.00 0.01 0.02 0.03 0.05 0.01 0.00 0.00 0.00 0.00 0.00 0.00 0.00 0.00 0.00 0.00 0.00 0.00 0.00 0.00 0.00 0.00 0.00 0.00 0.00 0.00 0.00 0.01 0.01 0.01 0.00 0.00 0.00 0.00 0.00 0.00 0.00 0.00 0.00 0.00 0.01 0.01
0.00 0.00 0.01 0.03 0.02 0.02 0.00 0.00 0.00 0.00 0.00 0.00 0.00 0.00 0.00 0.00 0.00 0.00 0.00 0.00 0.00 0.00 0.00 0.00 0.00 0.00 0.00 0.00 0.00 0.00 0.00 0.01 0.00 0.00 0.00 0.00 0.00 0.00 0.00 0.00 0.00 0.01 0.01
0.00 0.00 0.01 0.01 0.00 0.00 0.00 0.00 0.00 0.00 0.00 0.00 0.00 0.00 0.00 0.00 0.00 0.00 0.00 0.00 0.00 0.00 0.00 0.00 0.00 0.00 0.00 0.00 0.00 0.00 0.00 0.00 0.00 0.00 0.00 0.01 0.00 0.00 0.00 0.00 0.01 0.02 0.03
0.00 0.00 0.00 0.00 0.00 0.00 0.00 0.00 0.00 0.00 0.00 0.00 0.00 0.00 0.00 0.00 0.00 0.00 0.00 0.00 0.00 0.00 0.00 0.00 0.00 0.00 0.00 0.00 0.00 0.00 0.00 0.00 0.01 0.02 0.01 0.01 0.00 0.00 0.00 0.00 0.01 0.03 0.03
0.00 0.00 0.00 0.00 0.00 0.00 0.00 0.00 0.00 0.00 0.00 0.00 0.00 0.00 0.00 0.00 0.00 0.00 0.00 0.00 0.00 0.00 0.00 0.00 0.00 0.00 0.00 0.00 0.00 0.00 0.00 0.00 0.00 0.00 0.00 0.00 0.01 0.00 0.00 0.00 0.01 0.03 0.06
0.00 0.00 0.00 0.00 0.00 0.00 0.00 0.00 0.00 0.00 0.00 0.00 0.00 0.00 0.00 0.00 0.00 0.00 0.00 0.00 0.00 0.00 0.00 0.00 0.00 0.00 0.00 0.00 0.00 0.00 0.00 0.00 0.00 0.00 0.01 0.01 0.01 0.01 0.01 0.00 0.01 0.05 0.06
0.00 0.00 0.00 0.00 0.00 0.00 0.00 0.00 0.00 0.00 0.00 0.00 0.00 0.00 0.00 0.00 0.00 0.00 0.00 0.00 0.00 0.00 0.00 0.00 0.00 0.00 0.00 0.00 0.00 0.00 0.00 0.00 0.00 0.00 0.02 0.01 0.01 0.02 0.02 0.03 0.04 0.06 0.08
0.00 0.00 0.00 0.00 0.00 0.00 0.00 0.00 0.00 0.00 0.00 0.00 0.00 0.01 0.00 0.00 0.00 0.00 0.00 0.00 0.00 0.00 0.00 0.00 0.00 0.00 0.00 0.00 0.00 0.00 0.00 0.00 0.00 0.00 0.00 0.01 0.01 0.04 0.08 0.10 0.11 0.12 0.11
0.00 0.00 0.00 0.00 0.00 0.00 0.00 0.00 0.00 0.00 0.00 0.00 0.00 0.00 0.02 0.01 0.00 0.00 0.00 0.00 0.00 0.00 0.00 0.00 0.00 0.00 0.00 0.00 0.00 0.00 0.00 0.00 0.00 0.00 0.00 0.00 0.00 0.03 0.05 0.07 0.06 0.05 0.06
0.00 0.00 0.01 0.00 0.00 0.00 0.00 0.00 0.00 0.00 0.00 0.00 0.00 0.01 0.01 0.00 0.00 0.00 0.00 0.00 0.00 0.00 0.00 0.00 0.00 0.00 0.00 0.00 0.00 0.00 0.00 0.00 0.00 0.00 0.00 0.00 0.00 0.00 0.00 0.01 0.01 0.01 0.00
0.00 0.00 0.00 0.00 0.01 0.00 0.01 0.02 0.03 0.01 0.00 0.00 0.00 0.01 0.01 0.01 0.00 0.00 0.00 0.00 0.00 0.00 0.00 0.00 0.00 0.00 0.00 0.00 0.00 0.00 0.00 0.00 0.00 0.00 0.00 0.00 0.00 0.00 0.00 0.00 0.00 0.00 0.00
0.00 0.00 0.00 0.00 0.01 0.02 0.04 0.03 0.02 0.00 0.00 0.01 0.00 0.00 0.00 0.00 0.00 0.00 0.00 0.00 0.00 0.00 0.00 0.00 0.00 0.00 0.00 0.00 0.00 0.00 0.00 0.00 0.00 0.00 0.00 0.00 0.00 0.00 0.00 0.00 0.00 0.00 0.00
0.00 0.00 0.00 0.00 0.01 0.02 0.03 0.02 0.00 0.01 0.01 0.00 0.00 0.00 0.00 0.00 0.00 0.00 0.00 0.00 0.00 0.00 0.00 0.00 0.00 0.00 0.00 0.00 0.00 0.00 0.00 0.00 0.00 0.00 0.00 0.00 0.00 0.00 0.00 0.00 0.00 0.00 0.00
0.00 0.00 0.00 0.00 0.00 0.00 0.01 0.00 0.00 0.01 0.01 0.00 0.00 0.00 0.00 0.00 0.00 0.00 0.00 0.00 0.00 0.00 0.00 0.00 0.00 0.00 0.00 0.00 0.00 0.00 0.00 0.00 0.00 0.00 0.00 0.00 0.00 0.00 0.00 0.00 0.00 0.00 0.00
0.00 0.00 0.00 0.00 0.00 0.00 0.00 0.00 0.00 0.00 0.00 0.00 0.00 0.00 0.00 0.00 0.00 0.00 0.00 0.00 0.00 0.00 0.00 0.00 0.00 0.00 0.00 0.00 0.00 0.00 0.00 0.00 0.00 0.00 0.00 0.00 0.00 0.00 0.00 0.00 0.00 0.00 0.00
0.00 0.00 0.00 0.00 0.00 0.00 0.00 0.00 0.00 0.00 0.00 0.00 0.00 0.00 0.00 0.00 0.00 0.00 0.00 0.00 0.00 0.00 0.00 0.00 0.00 0.00 0.00 0.00 0.00 0.00 0.00 0.00 0.00 0.00 0.00 0.00 0.00 0.00 0.00 0.00 0.00 0.00 0.00
0.00 0.00 0.00 0.00 0.00 0.00 0.00 0.00 0.00 0.00 0.00 0.00 0.01 0.00 0.00 0.00 0.00 0.00 0.00 0.00 0.00 0.00 0.00 0.00 0.00 0.00 0.00 0.00 0.00 0.00 0.00 0.00 0.00 0.00 0.00 0.00 0.00 0.00 0.00 0.00 0.00 0.00 0.00
0.00 0.00 0.00 0.00 0.00 0.00 0.00 0.00 0.00 0.01 0.01 0.02 0.00 0.00 0.00 0.00 0.00 0.00 0.00 0.00 0.00 0.00 0.00 0.00 0.00 0.00 0.00 0.00 0.00 0.00 0.00 0.00 0.00 0.00 0.00 0.00 0.00 0.00 0.00 0.00 0.00 0.00 0.00
0.00 0.00 0.00 0.00 0.00 0.00 0.00 0.00 0.02 0.04 0.02 0.01 0.00 0.00 0.00 0.00 0.00 0.00 0.00 0.00 0.00 0.00 0.00 0.00 0.00 0.00 0.00 0.00 0.00 0.00 0.00 0.00 0.00 0.00 0.00 0.00 0.00 0.00 0.00 0.00 0.00 0.00 0.00
0.00 0.00 0.00 0.00 0.00 0.00 0.00 0.00 0.00 0.00 0.00 0.00 0.00 0.00 0.00 0.00 0.00 0.00 0.00 0.00 0.00 0.00 0.00 0.00 0.00 0.00 0.00 0.00 0.00 0.00 0.00 0.00 0.00 0.00 0.00 0.00 0.00 0.00 0.00 0.00 0.00 0.00 0.00
0.00 0.00 0.00 0.00 0.00 0.00 0.00 0.00 0.00 0.01 0.00 0.00 0.00 0.00 0.00 0.00 0.00 0.00 0.00 0.00 0.00 0.00 0.00 0.00 0.00 0.00 0.00 0.00 0.00 0.00 0.00 0.00 0.00 0.00 0.00 0.00 0.00 0.00 0.00 0.00 0.00 0.00 0.00
MSLP
1010.54 1011.03 1011.47 1011.94 1012.86 1013.65 1014.44 1015.00 1014.98 1016.60 1017.12 1017.25 1016.95 1016.71 1016.77 1016.67 1016.81 1016.99 1017.12 1017.28 1017.27 1017.21 1017.12 1017.01 1016.50 1016.14 1015.69 1015.17 1014.70 1014.14 1013.42 1012.78 1010.88 1009.58 1009.13 1008.66 1008.16 1007.85 1007.67 1007.32 1007.09 1006.87 1006.54
1009.68 1010.36 1010.82 1011.76 1013.05 1014.14 1014.49 1015.02 1016.47 1017.59 1017.35 1017.15 1016.92 1016.56 1016.42 1016.50 1016.52 1016.57 1016.84 1017.16 1017.13 1017.10 1016.88 1016.63 1016.15 1015.71 1015.20 1014.78 1014.14 1013.30 1012.34 1011.38 1010.21 1008.46 1008.00 1007.56 1007.10 1006.66 1006.37 1006.24 1006.07 1005.70 1005.56
1009.50 1010.04 1010.71 1011.50 1012.29 1012.57 1013.71 1014.72 1014.73 1016.64 1017.05 1016.69 1016.67 1016.27 1016.15 1016.09 1016.11 1016.38 1016.76 1016.92 1016.93 1016.88 1016.80 1016.51 1015.96 1015.50 1014.97 1014.11 1013.38 1012.18 1011.10 1009.88 1008.80 1007.78 1006.61 1006.37 1005.69 1005.52 1005.29 1005.19 1005.09 1004.97 1004.69
1009.30 1009.87 1010.43 1011.16 1012.07 1012.63 1013.44 1014.16 1014.73 1015.78 1016.04 1016.30 1016.22 1015.84 1015.96 1016.10 1016.21 1016.44 1016.53 1016.66 1016.69 1016.49 1016.42 1016.05 1015.58 1015.09 1014.38 1013.37 1012.30 1010.92 1009.62 1008.47 1007.46 1006.42 1005.56 1004.66 1004.57 1004.35 1004.42 1004.30 1004.18 1004.25 1003.98
1009.11 1009.63 1010.12 1010.82 1011.45 1012.36 1013.05 1013.88 1014.50 1014.98 1015.42 1015.54 1015.40 1015.48 1015.58 1015.78 1015.78 1016.11 1016.29 1016.27 1016.45 1016.19 1015.78 1015.34 1014.98 1014.38 1013.57 1012.62 1011.68 1009.92 1008.54 1007.25 1005.96 1005.02 1004.26 1003.74 1003.27 1003.43 1003.32 1003.35 1003.56 1003.46 1003.23
1008.88 1009.36 1009.85 1010.56 1011.10 1012.06 1012.74 1013.47 1014.08 1014.43 1014.58 1014.68 1014.88 1015.10 1015.24 1015.29 1015.64 1015.78 1015.90 1016.30 1016.13 1015.98 1015.57 1014.85 1014.45 1013.78 1012.83 1011.95 1010.94 1009.52 1008.06 1006.24 1004.78 1003.65 1003.10 1002.58 1002.05 1002.12 1002.42 1002.67 1002.95 1002.97 1002.53
1008.64 1009.22 1009.91 1010.44 1011.01 1011.66 1012.38 1012.96 1013.31 1013.54 1013.87 1014.12 1014.40 1014.69 1014.96 1015.20 1015.30 1015.58 1015.88 1016.11 1015.96 1015.77 1015.33 1014.58 1014.14 1013.39 1012.53 1011.44 1009.89 1008.42 1006.58 1005.06 1003.67 1002.65 1001.98 1001.41 1001.12 1001.07 1001.62 1001.94 1002.21 1002.16 1001.80
1008.78 1009.26 1009.81 1010.40 1010.99 1011.57 1012.06 1012.41 1012.75 1013.11 1013.38 1013.79 1014.29 1014.56 1014.90 1015.08 1015.24 1015.57 1015.70 1015.75 1015.74 1015.43 1014.79 1014.42 1013.84 1013.08 1012.36 1011.24 1009.68 1007.73 1006.14 1004.46 1003.18 1001.89 1000.83 999.91 999.85 1000.00 1000.71 1001.06 1001.46 1001.46 1001.03
1008.68 1009.04 1009.47 1010.02 1010.68 1011.14 1011.76 1012.06 1012.43 1012.82 1013.14 1013.63 1013.90 1014.25 1014.70 1014.91 1015.19 1015.42 1015.68 1015.70 1015.39 1014.89 1014.38 1014.02 1013.56 1013.00 1012.35 1011.11 1010.00 1008.00 1006.02 1004.20 1002.67 1000.97 999.08 998.35 999.02 999.41 1000.06 1000.68 1001.07 1001.17 1000.76
1008.38 1008.73 1009.17 1009.57 1010.20 1010.94 1011.32 1011.75 1012.16 1012.64 1013.04 1013.48 1013.82 1014.21 1014.62 1014.95 1015.27 1015.44 1015.62 1015.54 1014.94 1014.51 1014.17 1013.74 1013.35 1013.00 1012.24 1011.15 1010.53 1008.80 1007.07 1005.19 1003.31 1001.07 998.94 998.40 998.88 999.37 999.87 1000.38 1000.74 1000.86 1000.68
1008.49 1008.91 1009.18 1009.60 1009.91 1010.36 1011.07 1011.56 1011.92 1012.61 1013.24 1013.66 1013.92 1014.26 1014.59 1014.97 1015.19 1015.35 1015.44 1015.25 1014.98 1014.56 1014.15 1013.73 1013.31 1012.88 1012.02 1011.27 1010.72 1009.49 1008.51 1006.20 1003.91 1002.45 1000.78 999.76 999.18 999.46 999.87 1000.30 1000.62 1000.85 1000.66
1008.31 1008.96 1009.16 1009.28 1009.78 1010.34 1010.90 1011.64 1012.14 1012.78 1013.43 1013.83 1014.11 1014.39 1014.78 1015.07 1015.09 1015.26 1015.18 1014.84 1014.88 1014.66 1014.27 1013.92 1013.53 1012.83 1012.12 1011.36 1010.91 1009.50 1008.47 1006.68 1005.05 1003.61 1002.50 1001.82 1001.14 1000.42 1000.02 1000.17 1000.58 1000.77 1000.81
1008.62 1008.95 1009.03 1009.16 1009.74 1010.30 1010.96 1011.66 1012.35 1012.77 1013.32 1013.57 1013.86 1014.40 1014.79 1014.97 1015.16 1015.23 1014.84 1014.86 1014.73 1014.51 1014.29 1013.96 1013.64 1012.80 1012.30 1011.38 1010.87 1010.01 1009.20 1007.79 1006.92 1005.52 1004.58 1003.70 1003.00 1002.48 1001.66 1001.54 1001.53 1001.61 1001.27
1008.64 1009.05 1009.14 1009.58 1010.19 1010.76 1011.10 1011.72 1012.39 1012.92 1013.34 1013.49 1013.83 1014.40 1014.76 1015.02 1015.25 1015.35 1015.00 1015.04 1014.71 1014.53 1014.22 1013.87 1013.69 1013.20 1012.84 1012.11 1011.36 1010.69 1010.02 1009.26 1008.32 1007.54 1006.82 1005.94 1004.75 1003.60 1003.27 1003.14 1002.96 1002.58 1001.88
1009.15 1009.52 1009.72 1010.12 1010.44 1011.14 1011.82 1012.29 1012.56 1013.00 1013.36 1013.38 1013.52 1013.96 1014.57 1014.96 1015.19 1015.20 1015.12 1015.26 1015.03 1014.81 1014.52 1014.10 1013.83 1013.44 1013.26 1012.89 1012.35 1011.58 1010.88 1010.03 1009.31 1008.76 1008.02 1007.60 1006.82 1005.90 1005.46 1005.49 1004.73 1003.80 1003.29
1009.76 1009.56 1009.89 1010.43 1011.04 1011.45 1011.82 1012.65 1013.12 1013.41 1013.27 1013.13 1013.36 1013.61 1014.45 1014.71 1014.99 1015.16 1015.34 1015.30 1015.10 1015.03 1014.96 1014.83 1014.96 1014.72 1014.53 1014.16 1013.40 1012.70 1011.96 1011.36 1010.82 1009.99 1009.23 1008.84 1008.45 1008.04 1007.44 1007.01 1006.22 1006.22 1006.32
1009.81 1010.10 1010.28 1010.68 1011.06 1011.37 1011.96 1012.52 1012.94 1013.50 1013.43 1013.32 1013.54 1013.92 1014.30 1014.70 1015.19 1015.39 1015.61 1015.55 1015.50 1015.26 1015.44 1015.58 1015.70 1015.55 1015.32 1014.98 1014.28 1013.63 1013.02 1012.60 1012.01 1011.10 1010.40 1010.09 1009.56 1009.01 1008.45 1008.05 1007.77 1007.68 1007.44
1009.72 1009.78 1010.22 1010.85 1011.08 1011.41 1011.60 1012.14 1012.63 1013.02 1013.42 1014.08 1014.38 1014.63 1014.84 1015.03 1015.32 1015.61 1015.56 1015.49 1015.85 1015.92 1016.12 1016.24 1016.30 1016.30 1016.13 1015.66 1015.12 1014.49 1014.02 1013.48 1012.79 1012.06 1011.58 1011.12 1010.65 1010.28 1009.76 1009.38 1009.08 1008.87 1008.53
1009.61 1009.97 1010.28 1010.62 1011.04 1011.23 1011.43 1011.82 1012.24 1012.81 1013.21 1013.86 1014.48 1014.92 1015.25 1015.40 1015.44 1015.72 1015.62 1015.80 1016.20 1016.50 1016.70 1016.74 1016.93 1016.87 1016.76 1016.38 1015.89 1015.41 1014.92 1014.52 1013.95 1013.12 1012.62 1012.18 1011.82 1011.45 1011.09 1010.79 1010.27 1009.92 1009.52
1009.50 1009.76 1010.10 1010.52 1010.58 1011.05 1011.30 1011.55 1012.00 1012.41 1012.93 1013.56 1014.11 1014.49 1015.05 1015.31 1015.48 1015.78 1015.96 1016.32 1016.42 1016.81 1017.16 1017.27 1017.44 1017.34 1017.16 1016.90 1016.45 1016.12 1015.63 1015.26 1014.85 1014.14 1013.67 1013.17 1012.89 1012.39 1012.02 1011.74 1011.28 1011.06 1010.82
1009.39 1009.66 1009.86 1010.25 1010.48 1010.92 1010.94 1011.28 1011.62 1012.01 1012.64 1013.16 1013.63 1014.09 1014.55 1014.93 1015.37 1015.65 1016.05 1016.54 1016.72 1017.14 1017.52 1017.74 1017.77 1017.72 1017.60 1017.42 1017.07 1016.67 1016.28 1016.15 1015.78 1015.18 1014.56 1014.07 1013.71 1013.25 1012.93 1012.67 1012.28 1011.93 1011.74
1009.35 1009.54 1009.82 1010.09 1010.31 1010.65 1010.84 1011.09 1011.44 1011.86 1012.43 1013.04 1013.75 1014.32 1014.72 1014.99 1015.33 1015.76 1016.30 1016.76 1017.16 1017.57 1017.90 1018.08 1018.16 1018.18 1018.11 1018.04 1017.76 1017.34 1017.07 1016.76 1016.24 1015.91 1015.55 1014.92 1014.52 1014.09 1013.76 1013.48 1013.07 1012.84 1012.69
1009.44 1009.61 1009.87 1010.09 1010.26 1010.48 1010.78 1011.16 1011.40 1011.87 1012.51 1013.16 1013.80 1014.40 1014.69 1015.11 1015.54 1016.02 1016.51 1017.06 1017.52 1017.96 1018.24 1018.25 1018.28 1018.39 1018.40 1018.22 1017.98 1017.79 1017.53 1017.27 1017.01 1016.65 1016.18 1015.52 1015.12 1014.79 1014.40 1014.24 1013.93 1013.64 1013.34
1009.53 1009.77 1009.98 1010.16 1010.30 1010.44 1010.76 1011.18 1011.50 1011.96 1012.58 1013.28 1013.88 1014.34 1014.90 1015.39 1015.84 1016.30 1016.80 1017.34 1017.75 1018.14 1018.43 1018.51 1018.59 1018.63 1018.55 1018.43 1018.36 1018.20 1017.92 1017.66 1017.20 1016.85 1016.51 1016.02 1015.55 1015.16 1014.76 1014.54 1014.36 1014.24 1013.95
1009.73 1009.94 1010.14 1010.23 1010.38 1010.55 1010.82 1011.13 1011.62 1012.18 1012.75 1013.36 1014.00 1014.59 1015.14 1015.62 1016.05 1016.55 1017.09 1017.51 1017.90 1018.24 1018.53 1018.72 1018.85 1018.90 1018.88 1018.74 1018.51 1018.23 1018.14 1017.93 1017.56 1017.29 1016.67 1016.32 1016.05 1015.72 1015.43 1015.22 1015.06 1014.82 1014.69
1010.03 1010.02 1010.33 1010.38 1010.45 1010.61 1010.91 1011.25 1011.84 1012.48 1013.05 1013.49 1014.17 1014.72 1015.12 1015.67 1016.23 1016.74 1017.22 1017.64 1017.98 1018.27 1018.54 1018.75 1018.91 1018.97 1018.98 1018.95 1018.91 1018.79 1018.50 1018.17 1017.76 1017.52 1017.05 1016.79 1016.54 1016.32 1016.11 1015.92 1015.74 1015.52 1015.44
Thickness
5816 5808 5803 5798 5786 5775 5764 5758 5754 5737 5727 5725 5725 5724 5719 5715 5709 5701 5694 5686 5680 5674 5669 5662 5659 5655 5654 5654 5653 5652 5652 5651 5660 5672 5680 5687 5689 5691 5694 5696 5700 5706 5715
5816 5808 5802 5792 5777 5760 5758 5748 5734 5714 5721 5720 5719 5718 5715 5710 5702 5694 5686 5676 5670 5662 5658 5653 5650 5648 5646 5642 5643 5643 5646 5650 5652 5659 5666 5671 5676 5680 5685 5690 5692 5699 5707
5815 5808 5799 5787 5778 5771 5758 5748 5743 5721 5717 5716 5711 5712 5710 5704 5696 5688 5678 5670 5660 5654 5647 5643 5640 5639 5635 5635 5636 5638 5640 5642 5644 5642 5651 5654 5661 5667 5671 5677 5682 5685 5696
5813 5804 5796 5786 5776 5769 5758 5745 5737 5724 5719 5709 5708 5709 5700 5691 5686 5677 5669 5660 5652 5647 5640 5637 5633 5631 5630 5629 5630 5633 5636 5635 5636 5638 5641 5650 5652 5657 5661 5662 5667 5672 5683
5808 5800 5793 5784 5776 5764 5755 5744 5735 5724 5714 5709 5709 5702 5694 5685 5680 5668 5660 5653 5646 5641 5637 5633 5627 5626 5626 5625 5618 5624 5628 5628 5635 5638 5640 5643 5649 5647 5650 5653 5654 5660 5670
5803 5796 5789 5780 5772 5760 5752 5742 5730 5721 5717 5712 5704 5696 5688 5681 5672 5663 5655 5644 5639 5634 5630 5628 5622 5621 5622 5623 5619 5618 5619 5626 5636 5640 5643 5644 5650 5650 5647 5645 5644 5646 5656
5798 5790 5781 5773 5765 5756 5745 5736 5728 5722 5715 5707 5699 5691 5681 5672 5664 5655 5645 5637 5630 5625 5623 5622 5617 5615 5614 5616 5620 5620 5627 5634 5640 5644 5647 5647 5647 5647 5643 5641 5640 5643 5650
5789 5782 5774 5765 5757 5746 5738 5731 5724 5717 5709 5700 5690 5682 5672 5664 5655 5645 5638 5630 5623 5620 5619 5614 5611 5608 5606 5608 5611 5620 5625 5634 5641 5647 5650 5653 5651 5649 5643 5640 5638 5640 5648
5780 5775 5769 5761 5749 5741 5731 5725 5718 5709 5701 5691 5683 5674 5663 5656 5646 5639 5628 5622 5618 5616 5614 5608 5606 5602 5598 5601 5600 5612 5621 5632 5641 5649 5661 5662 5652 5649 5644 5638 5636 5636 5645
5775 5769 5763 5756 5746 5735 5727 5718 5711 5701 5692 5683 5673 5663 5653 5645 5636 5628 5620 5616 5615 5612 5609 5606 5601 5595 5592 5592 5590 5598 5607 5619 5632 5643 5655 5658 5651 5644 5639 5638 5637 5638 5643
5765 5758 5753 5746 5738 5729 5717 5708 5701 5689 5678 5669 5661 5652 5643 5634 5625 5618 5612 5610 5608 5605 5605 5602 5598 5592 5589 5587 5586 5589 5592 5607 5623 5628 5637 5644 5648 5644 5641 5639 5639 5639 5643
5757 5748 5742 5736 5726 5717 5707 5696 5687 5676 5665 5656 5648 5639 5631 5623 5617 5610 5606 5605 5602 5600 5599 5596 5591 5588 5585 5584 5584 5589 5592 5603 5613 5622 5625 5628 5633 5639 5642 5642 5641 5642 5646
5742 5735 5730 5724 5714 5706 5695 5685 5674 5667 5657 5650 5642 5631 5623 5616 5608 5602 5602 5599 5597 5596 5593 5591 5585 5585 5583 5584 5582 5583 5588 5593 5597 5607 5612 5617 5621 5625 5632 5633 5635 5637 5641
5730 5721 5717 5709 5700 5691 5684 5674 5664 5655 5647 5641 5633 5622 5614 5607 5599 5596 5597 5593 5591 5590 5589 5587 5582 5580 5579 5579 5577 5578 5579 5582 5586 5589 5593 5600 5608 5619 5621 5622 5625 5627 5636
5713 5705 5701 5694 5687 5675 5665 5658 5653 5644 5636 5634 5627 5618 5608 5600 5595 5592 5591 5587 5586 5583 5583 5582 5579 5575 5571 5571 5572 5574 5576 5576 5577 5580 5586 5585 5591 5598 5601 5602 5607 5616 5625
5694 5695 5690 5681 5671 5663 5657 5646 5636 5629 5626 5622 5617 5612 5601 5595 5589 5587 5583 5580 5580 5578 5577 5574 5569 5565 5561 5562 5565 5567 5570 5569 5567 5571 5575 5577 5578 5580 5583 5588 5597 5596 5596
5681 5676 5673 5667 5661 5655 5647 5638 5633 5620 5616 5612 5607 5601 5596 5589 5582 5580 5577 5574 5573 5574 5570 5565 5561 5558 5556 5556 5559 5562 5563 5562 5564 5568 5571 5569 5572 5574 5578 5581 5584 5584 5586
5668 5666 5663 5654 5650 5643 5639 5631 5625 5620 5613 5603 5593 5589 5584 5581 5576 5573 5572 5572 5569 5566 5561 5556 5554 5551 5549 5551 5554 5556 5557 5558 5561 5564 5565 5566 5568 5569 5572 5572 5573 5575 5579
5660 5654 5649 5644 5638 5633 5629 5624 5619 5612 5606 5597 5588 5582 5576 5572 5570 5566 5567 5567 5563 5558 5552 5550 5546 5545 5543 5545 5547 5549 5550 5550 5553 5558 5559 5561 5561 5562 5564 5566 5571 5572 5576
5652 5646 5641 5635 5632 5624 5620 5617 5612 5607 5600 5592 5586 5581 5574 5570 5568 5563 5560 5558 5556 5552 5545 5542 5540 5539 5539 5540 5541 5542 5544 5545 5545 5549 5551 5553 5553 5555 5558 5558 5561 5563 5565
5643 5638 5634 5627 5623 5616 5615 5611 5607 5602 5596 5590 5584 5577 5570 5567 5561 5560 5556 5552 5550 5544 5539 5535 5534 5533 5533 5534 5534 5536 5538 5536 5537 5540 5543 5544 5544 5547 5549 5550 5554 5556 5556
5632 5629 5623 5619 5616 5611 5608 5606 5601 5596 5591 5585 5575 5567 5561 5562 5559 5555 5550 5546 5542 5537 5532 5529 5527 5526 5526 5526 5526 5528 5529 5529 5532 5532 5532 5536 5537 5539 5540 5541 5545 5546 5547
5621 5619 5615 5611 5608 5603 5601 5597 5595 5591 5585 5575 5568 5562 5558 5558 5554 5549 5544 5539 5534 5529 5524 5523 5522 5520 5519 5520 5521 5521 5522 5523 5524 5524 5525 5528 5530 5531 5533 5533 5534 5536 5538
5611 5608 5605 5602 5600 5599 5596 5592 5589 5582 5573 5567 5563 5556 5554 5551 5548 5542 5537 5531 5526 5522 5519 5517 5515 5513 5513 5513 5512 5512 5514 5515 5516 5517 5517 5519 5522 5523 5526 5526 5526 5526 5528
5601 5599 5596 5595 5593 5591 5588 5586 5584 5577 5570 5562 5558 5554 5549 5545 5540 5536 5530 5525 5521 5517 5514 5512 5509 5507 5506 5506 5506 5507 5508 5508 5508 5508 5509 5510 5512 5513 5515 5516 5516 5516 5515
5592 5592 5588 5589 5588 5585 5581 5576 5575 5570 5563 5559 5553 5549 5545 5540 5534 5529 5524 5519 5515 5511 5508 5505 5502 5500 5498 5497 5497 5497 5498 5499 5499 5500 5500 5501 5502 5503 5504 5504 5504 5504 5503